Regional Weather Roundup
Issued by NWS Wilmington, NC

Home | Current Version | Previous Version | Text Only | Print | Product List | Glossary On
Versions: 1 2 3 4 5 6 7 8 9 10 11 12 13 14 15 16 17 18 19 20 21 22 23 24 25 26 27 28 29 30 31 32 33 34 35 36 37 38 39 40 41 42 43 44 45 46 47 48 49 50
000
ASUS42 KILM 220012
RWRILM
RWRILM
REGIONAL HOURLY WEATHER ROUNDUP
NATIONAL WEATHER SERVICE WILMINGTON NC
700 PM EST SAT JAN 21 2017

NOTE: "FAIR" INDICATES FEW OR NO CLOUDS BELOW 12,000 FEET WITH NO
SIGNIFICANT WEATHER AND/OR OBSTRUCTIONS TO VISIBILITY.

...............WFO WILMINGTON COUNTY WARNING AREA...............

......COASTAL NC AND SC COUNTIES......

CITY           SKY/WX    TMP DP  RH WIND       PRES   REMARKS
WILMINGTON     CLOUDY    63  62  97 S5        29.76S
N MYRTLE BEACH RAIN      64  64 100 SE8       29.73F FOG
MYRTLE BEACH   RAIN      64  61  88 S9        29.75F FOG

......INLAND NC AND SC COUNTIES.......

CITY           SKY/WX    TMP DP  RH WIND       PRES   REMARKS
LUMBERTON      LGT RAIN  64  64 100 SE15      29.67F
ELIZABETHTOWN  LGT RAIN  64  64 100 CALM      29.75R
WHITEVILLE     RAIN      65  64  96 S5        29.75R
FLORENCE       LGT RAIN  65  65 100 S24G33    29.63F
DARLINGTON     CLOUDY    64  63  96 SE10G20   29.64R
KINGSTREE      RAIN      64  63  94 E5        29.71F
HARTSVILLE     CLOUDY    63  61  94 S5        29.64R
BENNETTSVILLE  CLOUDY    66  64  94 SE5       29.64S
CONWAY         RAIN      63  63 100 E3        29.72F
GEORGETOWN     LGT RAIN  63  63 100 SW14      29.75R
MARION         LGT RAIN  63  63 100 S13G18    29.71F

....................REST OF NORTH CAROLINA......................

.........EASTERN NC.........

CITY           SKY/WX    TMP DP  RH WIND       PRES   REMARKS
CAPE HATTERAS  CLOUDY    59  55  87 NE3       29.80R
JACKSONVILLE   CLOUDY    61  60  97 NE3       29.76F
MOREHEAD CITY  LGT RAIN  56  55  97 CALM      29.79S
KENANSVILLE    CLOUDY    59  59 100 CALM      29.75F FOG
NEW BERN       LGT RAIN  55  54  96 E5        29.79F
ELIZABETH CITY CLOUDY    49  49 100 E3        29.81F

.........CENTRAL NC.........

CITY           SKY/WX    TMP DP  RH WIND       PRES   REMARKS
RALEIGH DURHAM LGT RAIN  54  52  93 E5        29.74F FOG
ROCKY MOUNT    LGT RAIN  54  54 100 N3        29.77F FOG
ROANOKE RAPIDS NOT AVBL
FAYETTEVILLE   LGT RAIN  61  60  97 E8        29.68F FOG
HOFFMAN        CLOUDY    58  57  98 E7        29.66F FOG

.........WESTERN NC.........

CITY           SKY/WX    TMP DP  RH WIND       PRES   REMARKS
CHARLOTTE      LGT RAIN  56  54  93 NE10      29.67F
GREENSBORO     LGT RAIN  53  53 100 NE7       29.70F
HICKORY        NOT AVBL
BOONE          NOT AVBL
ASHEVILLE      NOT AVBL

.....................REST OF SOUTH CAROLINA.....................

.........EASTERN SC.........

CITY           SKY/WX    TMP DP  RH WIND       PRES   REMARKS
CHARLESTON     CLOUDY    61  59  93 S8        29.75S
BEAUFORT MCAS  LGT RAIN  62  60  93 S9        29.79R
HILTON HEAD    CLOUDY    61  61 100 S10       29.81R

.........CENTRAL SC.........

CITY           SKY/WX    TMP DP  RH WIND       PRES   REMARKS
COLUMBIA       CLOUDY    66  60  81 S8        29.65R
ORANGEBURG     CLOUDY    63  60  90 W3        29.69R
SUMTER SHAW    CLOUDY    65  62  90 S12       29.63R

.........WESTERN SC.........

CITY           SKY/WX    TMP DP  RH WIND       PRES   REMARKS
GREENVILLE     NOT AVBL
ROCK HILL      CLOUDY    56  54  93 NE5       29.66F
ANDERSON       CLOUDY    57  55  93 NE7       29.66R
CLEMSON        NOT AVBL
GREENWOOD      CLOUDY    57  55  93 VRB3      29.66R


...................COASTAL AND OFFSHORE REPORTS..................

................LOCAL PIERS AND NC RESERVE................


STATION/POSITION TIME  SKY/WX   TEMP    WIND        PRES    VSBY
                                AIR SEA DIR/SP/G
                 (UTC)          (F)     (DEG/KT/KT) (MB)    (MI)
JOHNY MRCER PIER 2342               56   70/  4/  4 1006.5F
NC RESRV MASNBRO 2245            56      40/  1     1007.0
OCEAN CREST PIER NOT AVBL
SPRINGMAID  PIER NOT AVBL


................COASTAL AND OFFSHORE BUOYS................


STATION/POSITION TIME  SKY/WX   TEMP    WIND        PRES    VSBY
                                AIR SEA DIR/SP/G
                 (UTC)          (F)     (DEG/KT/KT) (MB)    (MI)
DIMNDSHOAL 41025 2350            72 74  160/ 14/ 17 1008.8F
WVE H/P(F/S)=  4/11 SWL H/P/D(F/S/D)=  3/ 60/11

CAPE LOOKOUT     2300            60      40/  9/ 11 1008.1F
ONSLOW BAY 41036 NOT AVBL
ONSLOW BAY 41064 2308            67 66  180/ 12/ 16 1008.0F
ONSLOW BAY 41159 2343               66                N/A
WVE H/P(F/S)=  4/11 SWL H/P/D(F/S/D)=  2/ 90/11

MASNBO INL 41110 2329               54                N/A
WVE H/P(F/S)=  2/11 SWL H/P/D(F/S/D)=  2/110/11

WILM HARBR 41108 2356               56                N/A
WVE H/P(F/S)=  2/11

27SE WRITB 41037 2308            72 72  170/ 14/ 19 1007.4F
FRYING PAN 41013 2350            71 70  160/ 10/ 12 1007.8F
WVE H/P(F/S)=  3/11 SWL H/P/D(F/S/D)=  2/110/11

SUNST NRSH 41024 2308            59 56  110/  2/  4 1007.1F
CAPRS NRSH 41029 2308            58 57  230/ 16/ 21 1006.9R
EDISTO     41004 2350            64 66  240/ 17/ 23 1008.6R
WVE H/P(F/S)=  3/ 4 SWL H/P/D(F/S/D)=  2/100/11



..........OFFSHORE BUOYS BEYOND 100 NM OFFSHORE...........
.....IN A TRIANGLE---HAT TO BERMUDA TO BAHAMAS TO HAT.....


STATION/POSITION TIME  SKY/WX   TEMP    WIND        PRES    VSBY
                                AIR SEA DIR/SP/G
                 (UTC)          (F)     (DEG/KT/KT) (MB)    (MI)
150E HAT   41001 NOT AVBL
W BERMUDA  41048 2350            70 70  290/ 12/ 14 1011.0R
WVE H/P(F/S)=  6/10 SWL H/P/D(F/S/D)=  5/ 50/10

ATLANTIC S 41049 2350            69 75  300/  8/  8 1015.1R
WVE H/P(F/S)=  8/13 SWL H/P/D(F/S/D)=  8/360/13

E BAHAMAS  41046 2350            74 78  150/  4/  8 1016.0R
WVE H/P(F/S)=  4/10 SWL H/P/D(F/S/D)=  3/10

NE BAHAMAS 41047 2350            74 75  250/ 12/ 16 1014.5R
WVE H/P(F/S)=  5/10 SWL H/P/D(F/S/D)=  5/ 50/10

120E CANVRL41010 NOT AVBL

END



USA.gov is the U.S. government's official web portal to all federal, state and local government web resources and services.